Year,Month,Day,Hour,Minute,Value (Times are PST for temperature in C)
2011,11,27,00,00,11.40
2011,11,27,00,01,11.40
2011,11,27,00,02,11.40
2011,11,27,00,03,11.40
2011,11,27,00,04,11.40
2011,11,27,00,05,11.40
2011,11,27,00,06,11.40
2011,11,27,00,07,11.30
2011,11,27,00,08,11.40
2011,11,27,00,09,11.40
2011,11,27,00,10,11.50
2011,11,27,00,11,11.50
2011,11,27,00,12,11.60
2011,11,27,00,13,11.60
2011,11,27,00,14,11.60
2011,11,27,00,15,11.60
2011,11,27,00,16,11.60
2011,11,27,00,17,11.60
2011,11,27,00,18,11.50
2011,11,27,00,19,11.50
2011,11,27,00,20,11.40
2011,11,27,00,21,11.40
2011,11,27,00,22,11.30
2011,11,27,00,23,11.30
2011,11,27,00,24,11.30
2011,11,27,00,25,11.20
2011,11,27,00,26,11.20
2011,11,27,00,27,11.10
2011,11,27,00,28,11.10
2011,11,27,00,29,11.10
2011,11,27,00,30,11.00
2011,11,27,00,31,11.00
2011,11,27,00,32,11.00
2011,11,27,00,33,11.00
2011,11,27,00,34,11.00
2011,11,27,00,35,11.00
2011,11,27,00,36,11.00
2011,11,27,00,37,11.00
2011,11,27,00,38,11.00
2011,11,27,00,39,11.00
2011,11,27,00,40,11.10
2011,11,27,00,41,11.10
2011,11,27,00,42,11.00
2011,11,27,00,43,10.90
2011,11,27,00,44,10.90
2011,11,27,00,45,10.90
2011,11,27,00,46,10.80
2011,11,27,00,47,10.80
2011,11,27,00,48,10.80
2011,11,27,00,49,10.80
2011,11,27,00,50,10.80
2011,11,27,00,51,10.80
2011,11,27,00,52,10.80
2011,11,27,00,53,10.70
2011,11,27,00,54,10.70
2011,11,27,00,55,10.70
2011,11,27,00,56,10.70
2011,11,27,00,57,10.70
2011,11,27,00,58,10.70
2011,11,27,00,59,10.70
2011,11,27,01,00,10.70
2011,11,27,01,01,10.70
2011,11,27,01,02,10.70
2011,11,27,01,03,10.70
2011,11,27,01,04,10.70
2011,11,27,01,05,10.70
2011,11,27,01,06,10.70
2011,11,27,01,07,10.70
2011,11,27,01,08,10.70
2011,11,27,01,09,10.70
2011,11,27,01,10,10.70
2011,11,27,01,11,10.70
2011,11,27,01,12,10.70
2011,11,27,01,13,10.70
2011,11,27,01,14,10.70
2011,11,27,01,15,10.70
2011,11,27,01,16,10.70
2011,11,27,01,17,10.80
2011,11,27,01,18,10.70
2011,11,27,01,19,10.80
2011,11,27,01,20,10.80
2011,11,27,01,21,10.80
2011,11,27,01,22,10.80
2011,11,27,01,23,10.70
2011,11,27,01,24,10.80
2011,11,27,01,25,10.80
2011,11,27,01,26,10.80
2011,11,27,01,27,10.80
2011,11,27,01,28,10.80
2011,11,27,01,29,10.80
2011,11,27,01,30,10.80
2011,11,27,01,31,10.80
2011,11,27,01,32,10.80
2011,11,27,01,33,10.80
2011,11,27,01,34,10.80
2011,11,27,01,35,10.80
2011,11,27,01,36,10.80
2011,11,27,01,37,10.80
2011,11,27,01,38,10.80
2011,11,27,01,39,10.80
2011,11,27,01,40,10.80
2011,11,27,01,41,10.80
2011,11,27,01,42,10.80
2011,11,27,01,43,10.80
2011,11,27,01,44,10.80
2011,11,27,01,45,10.80
2011,11,27,01,46,10.90
2011,11,27,01,47,10.90
2011,11,27,01,48,10.90
2011,11,27,01,49,10.90
2011,11,27,01,50,10.90
2011,11,27,01,51,11.00
2011,11,27,01,52,11.00
2011,11,27,01,53,11.00
2011,11,27,01,54,11.00
2011,11,27,01,55,11.00
2011,11,27,01,56,11.00
2011,11,27,01,57,11.00
2011,11,27,01,58,11.00
2011,11,27,01,59,11.10
2011,11,27,02,00,11.10
2011,11,27,02,01,11.10
2011,11,27,02,02,11.10
2011,11,27,02,03,11.10
2011,11,27,02,04,11.10
2011,11,27,02,05,11.10
2011,11,27,02,06,11.10
2011,11,27,02,07,11.10
2011,11,27,02,08,11.10
2011,11,27,02,09,11.10
2011,11,27,02,10,11.10
2011,11,27,02,11,11.10
2011,11,27,02,12,11.20
2011,11,27,02,13,11.10
2011,11,27,02,14,11.10
2011,11,27,02,15,11.10
2011,11,27,02,16,11.10
2011,11,27,02,17,11.10
2011,11,27,02,18,11.10
2011,11,27,02,19,11.10
2011,11,27,02,20,11.10
2011,11,27,02,21,11.10
2011,11,27,02,22,11.20
2011,11,27,02,23,11.20
2011,11,27,02,24,11.20
2011,11,27,02,25,11.20
2011,11,27,02,26,11.20
2011,11,27,02,27,11.20
2011,11,27,02,28,11.20
2011,11,27,02,29,11.20
2011,11,27,02,30,11.20
2011,11,27,02,31,11.20
2011,11,27,02,32,11.20
2011,11,27,02,33,11.20
2011,11,27,02,34,11.20
2011,11,27,02,35,11.20
2011,11,27,02,36,11.10
2011,11,27,02,37,11.10
2011,11,27,02,38,11.10
2011,11,27,02,39,11.10
2011,11,27,02,40,11.10
2011,11,27,02,41,11.20
2011,11,27,02,42,11.20
2011,11,27,02,43,11.30
2011,11,27,02,44,11.30
2011,11,27,02,45,11.30
2011,11,27,02,46,11.30
2011,11,27,02,47,11.30
2011,11,27,02,48,11.30
2011,11,27,02,49,11.30
2011,11,27,02,50,11.30
2011,11,27,02,51,11.30
2011,11,27,02,52,11.30
2011,11,27,02,53,11.30
2011,11,27,02,54,11.30
2011,11,27,02,55,11.30
2011,11,27,02,56,11.30
2011,11,27,02,57,11.30
2011,11,27,02,58,11.30
2011,11,27,02,59,11.40
2011,11,27,03,00,11.30
2011,11,27,03,01,11.30
2011,11,27,03,02,11.30
2011,11,27,03,03,11.30
2011,11,27,03,04,11.30
2011,11,27,03,05,11.30
2011,11,27,03,06,11.30
2011,11,27,03,07,11.30
2011,11,27,03,08,11.30
2011,11,27,03,09,11.20
2011,11,27,03,10,11.20
2011,11,27,03,11,11.20
2011,11,27,03,12,11.20
2011,11,27,03,13,11.20
2011,11,27,03,14,11.30
2011,11,27,03,15,11.40
2011,11,27,03,16,11.40
2011,11,27,03,17,11.40
2011,11,27,03,18,11.40
2011,11,27,03,19,11.30
2011,11,27,03,20,11.30
2011,11,27,03,21,11.30
2011,11,27,03,22,11.20
2011,11,27,03,23,11.20
2011,11,27,03,24,11.20
2011,11,27,03,25,11.20
2011,11,27,03,26,11.20
2011,11,27,03,27,11.20
2011,11,27,03,28,11.20
2011,11,27,03,29,11.30
2011,11,27,03,30,11.30
2011,11,27,03,31,11.30
2011,11,27,03,32,11.30
2011,11,27,03,33,11.30
2011,11,27,03,34,11.20
2011,11,27,03,35,11.20
2011,11,27,03,36,11.20
2011,11,27,03,37,11.20
2011,11,27,03,38,11.20
2011,11,27,03,39,11.20
2011,11,27,03,40,11.20
2011,11,27,03,41,11.20
2011,11,27,03,42,11.20
2011,11,27,03,43,11.20
2011,11,27,03,44,11.30
2011,11,27,03,45,11.30
2011,11,27,03,46,11.30
2011,11,27,03,47,11.30
2011,11,27,03,48,11.30
2011,11,27,03,49,11.30
2011,11,27,03,50,11.30
2011,11,27,03,51,11.40
2011,11,27,03,52,11.40
2011,11,27,03,53,11.40
2011,11,27,03,54,11.30
2011,11,27,03,55,11.30
2011,11,27,03,56,11.30
2011,11,27,03,57,11.30
2011,11,27,03,58,11.30
2011,11,27,03,59,11.30
2011,11,27,04,00,11.30
2011,11,27,04,01,11.30
2011,11,27,04,02,11.30
2011,11,27,04,03,11.30
2011,11,27,04,04,11.30
2011,11,27,04,05,11.30
2011,11,27,04,06,11.30
2011,11,27,04,07,11.30
2011,11,27,04,08,11.30
2011,11,27,04,09,11.30
2011,11,27,04,10,11.30
2011,11,27,04,11,11.30
2011,11,27,04,12,11.30
2011,11,27,04,13,11.30
2011,11,27,04,14,11.30
2011,11,27,04,15,11.30
2011,11,27,04,16,11.40
2011,11,27,04,17,11.40
2011,11,27,04,18,11.40
2011,11,27,04,19,11.40
2011,11,27,04,20,11.40
2011,11,27,04,21,11.30
2011,11,27,04,22,11.40
2011,11,27,04,23,11.40
2011,11,27,04,24,11.50
2011,11,27,04,25,11.50
2011,11,27,04,26,11.50
2011,11,27,04,27,11.50
2011,11,27,04,28,11.50
2011,11,27,04,29,11.40
2011,11,27,04,30,11.40
2011,11,27,04,31,11.40
2011,11,27,04,32,11.40
2011,11,27,04,33,11.30
2011,11,27,04,34,11.30
2011,11,27,04,35,11.30
2011,11,27,04,36,11.30
2011,11,27,04,37,11.30
2011,11,27,04,38,11.30
2011,11,27,04,39,11.30
2011,11,27,04,40,11.30
2011,11,27,04,41,11.20
2011,11,27,04,42,11.20
2011,11,27,04,43,11.20
2011,11,27,04,44,11.20
2011,11,27,04,45,11.20
2011,11,27,04,46,11.20
2011,11,27,04,47,11.20
2011,11,27,04,48,11.10
2011,11,27,04,49,11.10
2011,11,27,04,50,11.10
2011,11,27,04,51,11.10
2011,11,27,04,52,11.10
2011,11,27,04,53,11.10
2011,11,27,04,54,11.10
2011,11,27,04,55,11.10
2011,11,27,04,56,11.10
2011,11,27,04,57,11.10
2011,11,27,04,58,11.10
2011,11,27,04,59,11.10
2011,11,27,05,00,11.10
2011,11,27,05,01,11.10
2011,11,27,05,02,11.10
2011,11,27,05,03,11.00
2011,11,27,05,04,11.10
2011,11,27,05,05,11.10
2011,11,27,05,06,11.10
2011,11,27,05,07,11.10
2011,11,27,05,08,11.10
2011,11,27,05,09,11.10
2011,11,27,05,10,11.10
2011,11,27,05,11,11.10
2011,11,27,05,12,11.00
2011,11,27,05,13,11.00
2011,11,27,05,14,11.00
2011,11,27,05,15,11.10
2011,11,27,05,16,11.10
2011,11,27,05,17,11.10
2011,11,27,05,18,11.10
2011,11,27,05,19,11.10
2011,11,27,05,20,11.10
2011,11,27,05,21,11.10
2011,11,27,05,22,11.10
2011,11,27,05,23,11.10
2011,11,27,05,24,11.10
2011,11,27,05,25,11.10
2011,11,27,05,26,11.10
2011,11,27,05,27,11.10
2011,11,27,05,28,11.10
2011,11,27,05,29,11.10
2011,11,27,05,30,11.10
2011,11,27,05,31,11.10
2011,11,27,05,32,11.00
2011,11,27,05,33,11.00
2011,11,27,05,34,11.00
2011,11,27,05,35,11.00
2011,11,27,05,36,11.00
2011,11,27,05,37,11.00
2011,11,27,05,38,11.00
2011,11,27,05,39,10.90
2011,11,27,05,40,10.90
2011,11,27,05,41,10.90
2011,11,27,05,42,10.90
2011,11,27,05,43,10.90
2011,11,27,05,44,10.90
2011,11,27,05,45,10.90
2011,11,27,05,46,10.90
2011,11,27,05,47,10.90
2011,11,27,05,48,10.90
2011,11,27,05,49,10.90
2011,11,27,05,50,10.90
2011,11,27,05,51,10.90
2011,11,27,05,52,10.90
2011,11,27,05,53,10.90
2011,11,27,05,54,10.90
2011,11,27,05,55,10.90
2011,11,27,05,56,10.90
2011,11,27,05,57,10.90
2011,11,27,05,58,10.90
2011,11,27,05,59,10.90
2011,11,27,06,00,10.90
2011,11,27,06,01,10.90
2011,11,27,06,02,10.90
2011,11,27,06,03,10.90
2011,11,27,06,04,10.90
2011,11,27,06,05,10.90
2011,11,27,06,06,10.90
2011,11,27,06,07,10.90
2011,11,27,06,08,10.90
2011,11,27,06,09,10.90
2011,11,27,06,10,10.90
2011,11,27,06,11,10.80
2011,11,27,06,12,10.80
2011,11,27,06,13,10.80
2011,11,27,06,14,10.80
2011,11,27,06,15,10.80
2011,11,27,06,16,10.80
2011,11,27,06,17,10.90
2011,11,27,06,18,10.90
2011,11,27,06,19,10.90
2011,11,27,06,20,11.00
2011,11,27,06,21,11.00
2011,11,27,06,22,11.00
2011,11,27,06,23,11.00
2011,11,27,06,24,11.00
2011,11,27,06,25,10.90
2011,11,27,06,26,10.90
2011,11,27,06,27,10.90
2011,11,27,06,28,10.90
2011,11,27,06,29,10.90
2011,11,27,06,30,10.90
2011,11,27,06,31,10.90
2011,11,27,06,32,10.80
2011,11,27,06,33,10.80
2011,11,27,06,34,10.80
2011,11,27,06,35,10.80
2011,11,27,06,36,10.80
2011,11,27,06,37,10.80
2011,11,27,06,38,10.80
2011,11,27,06,39,10.80
2011,11,27,06,40,10.80
2011,11,27,06,41,10.80
2011,11,27,06,42,10.80
2011,11,27,06,43,10.80
2011,11,27,06,44,10.80
2011,11,27,06,45,10.80
2011,11,27,06,46,10.90
2011,11,27,06,47,10.90
2011,11,27,06,48,10.90
2011,11,27,06,49,10.90
2011,11,27,06,50,10.90
2011,11,27,06,51,10.90
2011,11,27,06,52,10.90
2011,11,27,06,53,10.80
2011,11,27,06,54,10.80
2011,11,27,06,55,10.80
2011,11,27,06,56,10.70
2011,11,27,06,57,10.70
2011,11,27,06,58,10.70
2011,11,27,06,59,10.80
2011,11,27,07,00,10.80
2011,11,27,07,01,10.80
2011,11,27,07,02,10.90
2011,11,27,07,03,11.00
2011,11,27,07,04,11.00
2011,11,27,07,05,11.10
2011,11,27,07,06,11.10
2011,11,27,07,07,11.10
2011,11,27,07,08,11.10
2011,11,27,07,09,11.10
2011,11,27,07,10,11.20
2011,11,27,07,11,11.20
2011,11,27,07,12,11.20
2011,11,27,07,13,11.20
2011,11,27,07,14,11.20
2011,11,27,07,15,11.20
2011,11,27,07,16,11.20
2011,11,27,07,17,11.10
2011,11,27,07,18,11.10
2011,11,27,07,19,11.10
2011,11,27,07,20,11.00
2011,11,27,07,21,11.00
2011,11,27,07,22,11.00
2011,11,27,07,23,10.90
2011,11,27,07,24,10.90
2011,11,27,07,25,10.90
2011,11,27,07,26,10.80
2011,11,27,07,27,10.80
2011,11,27,07,28,10.80
2011,11,27,07,29,10.80
2011,11,27,07,30,10.80
2011,11,27,07,31,10.70
2011,11,27,07,32,10.70
2011,11,27,07,33,10.70
2011,11,27,07,34,10.70
2011,11,27,07,35,10.70
2011,11,27,07,36,10.60
2011,11,27,07,37,10.60
2011,11,27,07,38,10.60
2011,11,27,07,39,10.60
2011,11,27,07,40,10.60
2011,11,27,07,41,10.60
2011,11,27,07,42,10.60
2011,11,27,07,43,10.50
2011,11,27,07,44,10.50
2011,11,27,07,45,10.50
2011,11,27,07,46,10.50
2011,11,27,07,47,10.50
2011,11,27,07,48,10.50
2011,11,27,07,49,10.40
2011,11,27,07,50,10.40
2011,11,27,07,51,10.40
2011,11,27,07,52,10.30
2011,11,27,07,53,10.30
2011,11,27,07,54,10.20
2011,11,27,07,55,10.20
2011,11,27,07,56,10.20
2011,11,27,07,57,10.20
2011,11,27,07,58,10.10
2011,11,27,07,59,10.10
2011,11,27,08,00,10.10
2011,11,27,08,01,10.00
2011,11,27,08,02,9.90
2011,11,27,08,03,9.90
2011,11,27,08,04,9.80
2011,11,27,08,05,9.80
2011,11,27,08,06,9.80
2011,11,27,08,07,9.70
2011,11,27,08,08,9.70
2011,11,27,08,09,9.70
2011,11,27,08,10,9.70
2011,11,27,08,11,9.70
2011,11,27,08,12,9.60
2011,11,27,08,13,9.60
2011,11,27,08,14,9.60
2011,11,27,08,15,9.60
2011,11,27,08,16,9.60
2011,11,27,08,17,9.60
2011,11,27,08,18,9.60
2011,11,27,08,19,9.60
2011,11,27,08,20,9.70
2011,11,27,08,21,9.70
2011,11,27,08,22,9.70
2011,11,27,08,23,9.70
2011,11,27,08,24,9.80
2011,11,27,08,25,9.80
2011,11,27,08,26,9.80
2011,11,27,08,27,9.80
2011,11,27,08,28,9.80
2011,11,27,08,29,9.80
2011,11,27,08,30,9.80
2011,11,27,08,31,9.70
2011,11,27,08,32,9.70
2011,11,27,08,33,9.70
2011,11,27,08,34,9.70
2011,11,27,08,35,9.70
2011,11,27,08,36,9.70
2011,11,27,08,37,9.70
2011,11,27,08,38,9.70
2011,11,27,08,39,9.70
2011,11,27,08,40,9.70
2011,11,27,08,41,9.70
2011,11,27,08,42,9.70
2011,11,27,08,43,9.70
2011,11,27,08,44,9.70
2011,11,27,08,45,9.70
2011,11,27,08,46,9.70
2011,11,27,08,47,9.70
2011,11,27,08,48,9.70
2011,11,27,08,49,9.70
2011,11,27,08,50,9.70
2011,11,27,08,51,9.60
2011,11,27,08,52,9.60
2011,11,27,08,53,9.60
2011,11,27,08,54,9.60
2011,11,27,08,55,9.60
2011,11,27,08,56,9.60
2011,11,27,08,57,9.60
2011,11,27,08,58,9.60
2011,11,27,08,59,9.60
2011,11,27,09,00,9.60
2011,11,27,09,01,9.60
2011,11,27,09,02,9.60
2011,11,27,09,03,9.60
2011,11,27,09,04,9.60
2011,11,27,09,05,9.60
2011,11,27,09,06,9.60
2011,11,27,09,07,9.60
2011,11,27,09,08,9.60
2011,11,27,09,09,9.60
2011,11,27,09,10,9.60
2011,11,27,09,11,9.50
2011,11,27,09,12,9.50
2011,11,27,09,13,9.50
2011,11,27,09,14,9.50
2011,11,27,09,15,9.40
2011,11,27,09,16,9.40
2011,11,27,09,17,9.40
2011,11,27,09,18,9.40
2011,11,27,09,19,9.40
2011,11,27,09,20,9.40
2011,11,27,09,21,9.40
2011,11,27,09,22,9.40
2011,11,27,09,23,9.40
2011,11,27,09,24,9.40
2011,11,27,09,25,9.40
2011,11,27,09,26,9.40
2011,11,27,09,27,9.40
2011,11,27,09,28,9.40
2011,11,27,09,29,9.40
2011,11,27,09,30,9.40
2011,11,27,09,31,9.50
2011,11,27,09,32,9.50
2011,11,27,09,33,9.50
2011,11,27,09,34,9.60
2011,11,27,09,35,9.60
2011,11,27,09,36,9.60
2011,11,27,09,37,9.60
2011,11,27,09,38,9.60
2011,11,27,09,39,9.70
2011,11,27,09,40,9.70
2011,11,27,09,41,9.60
2011,11,27,09,42,9.60
2011,11,27,09,43,9.60
2011,11,27,09,44,9.60
2011,11,27,09,45,9.50
2011,11,27,09,46,9.50
2011,11,27,09,47,9.40
2011,11,27,09,48,9.40
2011,11,27,09,49,9.40
2011,11,27,09,50,9.40
2011,11,27,09,51,9.30
2011,11,27,09,52,9.30
2011,11,27,09,53,9.30
2011,11,27,09,54,9.30
2011,11,27,09,55,9.40
2011,11,27,09,56,9.40
2011,11,27,09,57,9.40
2011,11,27,09,58,9.40
2011,11,27,09,59,9.40
2011,11,27,10,00,9.40
2011,11,27,10,01,9.40
2011,11,27,10,02,9.40
2011,11,27,10,03,9.40
2011,11,27,10,04,9.40
2011,11,27,10,05,9.40
2011,11,27,10,06,9.40
2011,11,27,10,07,9.40
2011,11,27,10,08,9.40
2011,11,27,10,09,9.40
2011,11,27,10,10,9.40
2011,11,27,10,11,9.40
2011,11,27,10,12,9.40
2011,11,27,10,13,9.40
2011,11,27,10,14,9.40
2011,11,27,10,15,9.40
2011,11,27,10,16,9.50
2011,11,27,10,17,9.70
2011,11,27,10,18,9.80
2011,11,27,10,19,9.90
2011,11,27,10,20,10.00
2011,11,27,10,21,10.10
2011,11,27,10,22,10.20
2011,11,27,10,23,10.20
2011,11,27,10,24,10.20
2011,11,27,10,25,10.20
2011,11,27,10,26,10.20
2011,11,27,10,27,10.20
2011,11,27,10,28,10.20
2011,11,27,10,29,10.20
2011,11,27,10,30,10.20
2011,11,27,10,31,10.30
2011,11,27,10,32,10.30
2011,11,27,10,33,10.40
2011,11,27,10,34,10.50
2011,11,27,10,35,10.50
2011,11,27,10,36,10.50
2011,11,27,10,37,10.60
2011,11,27,10,38,10.60
2011,11,27,10,39,10.60
2011,11,27,10,40,10.60
2011,11,27,10,41,10.60
2011,11,27,10,42,10.70
2011,11,27,10,43,10.70
2011,11,27,10,44,10.70
2011,11,27,10,45,10.70
2011,11,27,10,46,10.70
2011,11,27,10,47,10.70
2011,11,27,10,48,10.80
2011,11,27,10,49,10.80
2011,11,27,10,50,10.80
2011,11,27,10,51,10.90
2011,11,27,10,52,10.90
2011,11,27,10,53,10.90
2011,11,27,10,54,11.00
2011,11,27,10,55,11.00
2011,11,27,10,56,11.00
2011,11,27,10,57,11.00
2011,11,27,10,58,11.00
2011,11,27,10,59,11.10
2011,11,27,11,00,11.10
2011,11,27,11,01,11.20
2011,11,27,11,02,11.20
2011,11,27,11,03,11.20
2011,11,27,11,04,11.30
2011,11,27,11,05,11.30
2011,11,27,11,06,11.30
2011,11,27,11,07,11.30
2011,11,27,11,08,11.30
2011,11,27,11,09,11.40
2011,11,27,11,10,11.40
2011,11,27,11,11,11.50
2011,11,27,11,12,11.50
2011,11,27,11,13,11.50
2011,11,27,11,14,11.50
2011,11,27,11,15,11.50
2011,11,27,11,16,11.50
2011,11,27,11,17,11.50
2011,11,27,11,18,11.40
2011,11,27,11,19,11.40
2011,11,27,11,20,11.50
2011,11,27,11,21,11.50
2011,11,27,11,22,11.60
2011,11,27,11,23,11.60
2011,11,27,11,24,11.60
2011,11,27,11,25,11.70
2011,11,27,11,26,11.70
2011,11,27,11,27,11.70
2011,11,27,11,28,11.70
2011,11,27,11,29,11.70
2011,11,27,11,30,11.70
2011,11,27,11,31,11.70
2011,11,27,11,32,11.70
2011,11,27,11,33,11.80
2011,11,27,11,34,11.80
2011,11,27,11,35,11.70
2011,11,27,11,36,11.80
2011,11,27,11,37,11.80
2011,11,27,11,38,11.80
2011,11,27,11,39,11.80
2011,11,27,11,40,11.80
2011,11,27,11,41,11.90
2011,11,27,11,42,11.90
2011,11,27,11,43,11.90
2011,11,27,11,44,12.00
2011,11,27,11,45,12.00
2011,11,27,11,46,12.10
2011,11,27,11,47,12.10
2011,11,27,11,48,12.10
2011,11,27,11,49,12.10
2011,11,27,11,50,12.20
2011,11,27,11,51,12.20
2011,11,27,11,52,12.20
2011,11,27,11,53,12.30
2011,11,27,11,54,12.30
2011,11,27,11,55,12.30
2011,11,27,11,56,12.30
2011,11,27,11,57,12.40
2011,11,27,11,58,12.40
2011,11,27,11,59,12.50
2011,11,27,12,00,12.50
2011,11,27,12,01,12.60
2011,11,27,12,02,12.70
2011,11,27,12,03,12.70
2011,11,27,12,04,12.70
2011,11,27,12,05,12.70
2011,11,27,12,06,12.70
2011,11,27,12,07,12.70
2011,11,27,12,08,12.70
2011,11,27,12,09,12.70
2011,11,27,12,10,12.70
2011,11,27,12,11,12.70
2011,11,27,12,12,12.70
2011,11,27,12,13,12.70
2011,11,27,12,14,12.80
2011,11,27,12,15,12.80
2011,11,27,12,16,12.80
2011,11,27,12,17,12.80
2011,11,27,12,18,12.90
2011,11,27,12,19,12.90
2011,11,27,12,20,12.90
2011,11,27,12,21,13.00
2011,11,27,12,22,13.00
2011,11,27,12,23,13.00
2011,11,27,12,24,13.00
2011,11,27,12,25,13.10
2011,11,27,12,26,13.10
2011,11,27,12,27,13.10
2011,11,27,12,28,13.10
2011,11,27,12,29,13.10
2011,11,27,12,30,13.10
2011,11,27,12,31,13.20
2011,11,27,12,32,13.20
2011,11,27,12,33,13.20
2011,11,27,12,34,13.10
2011,11,27,12,35,13.10
2011,11,27,12,36,13.10
2011,11,27,12,37,13.20
2011,11,27,12,38,13.20
2011,11,27,12,39,13.20
2011,11,27,12,40,13.20
2011,11,27,12,41,13.30
2011,11,27,12,42,13.30
2011,11,27,12,43,13.30
2011,11,27,12,44,13.30
2011,11,27,12,45,13.30
2011,11,27,12,46,13.30
2011,11,27,12,47,13.30
2011,11,27,12,48,13.30
2011,11,27,12,49,13.30
2011,11,27,12,50,13.30
2011,11,27,12,51,13.30
2011,11,27,12,52,13.30
2011,11,27,12,53,13.40
2011,11,27,12,54,13.40
2011,11,27,12,55,13.50
2011,11,27,12,56,13.50
2011,11,27,12,57,13.50
2011,11,27,12,58,13.50
2011,11,27,12,59,13.50
2011,11,27,13,00,13.50
2011,11,27,13,01,13.50
2011,11,27,13,02,13.50
2011,11,27,13,03,13.50
2011,11,27,13,04,13.40
2011,11,27,13,05,13.40
2011,11,27,13,06,13.30
2011,11,27,13,07,13.20
2011,11,27,13,08,13.10
2011,11,27,13,09,13.10
2011,11,27,13,10,13.00
2011,11,27,13,11,13.00
2011,11,27,13,12,13.00
2011,11,27,13,13,12.90
2011,11,27,13,14,12.80
2011,11,27,13,15,12.70
2011,11,27,13,16,12.60
2011,11,27,13,17,12.60
2011,11,27,13,18,12.50
2011,11,27,13,19,12.50
2011,11,27,13,20,12.40
2011,11,27,13,21,12.10
2011,11,27,13,22,11.70
2011,11,27,13,23,11.20
2011,11,27,13,24,10.70
2011,11,27,13,25,10.40
2011,11,27,13,26,10.20
2011,11,27,13,27,10.10
2011,11,27,13,28,10.00
2011,11,27,13,29,9.90
2011,11,27,13,30,9.80
2011,11,27,13,31,9.80
2011,11,27,13,32,9.70
2011,11,27,13,33,9.70
2011,11,27,13,34,9.60
2011,11,27,13,35,9.60
2011,11,27,13,36,9.50
2011,11,27,13,37,9.40
2011,11,27,13,38,9.40
2011,11,27,13,39,9.30
2011,11,27,13,40,9.30
2011,11,27,13,41,9.20
2011,11,27,13,42,9.20
2011,11,27,13,43,9.10
2011,11,27,13,44,9.00
2011,11,27,13,45,8.90
2011,11,27,13,46,8.80
2011,11,27,13,47,8.70
2011,11,27,13,48,8.60
2011,11,27,13,49,8.60
2011,11,27,13,50,8.50
2011,11,27,13,51,8.50
2011,11,27,13,52,8.40
2011,11,27,13,53,8.40
2011,11,27,13,54,8.30
2011,11,27,13,55,8.30
2011,11,27,13,56,8.30
2011,11,27,13,57,8.20
2011,11,27,13,58,8.20
2011,11,27,13,59,8.20
2011,11,27,14,00,8.20
2011,11,27,14,01,8.10
2011,11,27,14,02,8.10
2011,11,27,14,03,8.10
2011,11,27,14,04,8.10
2011,11,27,14,05,8.10
2011,11,27,14,06,8.00
2011,11,27,14,07,8.00
2011,11,27,14,08,8.00
2011,11,27,14,09,7.90
2011,11,27,14,10,7.90
2011,11,27,14,11,7.90
2011,11,27,14,12,7.80
2011,11,27,14,13,7.80
2011,11,27,14,14,7.70
2011,11,27,14,15,7.70
2011,11,27,14,16,7.70
2011,11,27,14,17,7.60
2011,11,27,14,18,7.60
2011,11,27,14,19,7.60
2011,11,27,14,20,7.60
2011,11,27,14,21,7.50
2011,11,27,14,22,7.50
2011,11,27,14,23,7.50
2011,11,27,14,24,7.40
2011,11,27,14,25,7.40
2011,11,27,14,26,7.40
2011,11,27,14,27,7.40
2011,11,27,14,28,7.30
2011,11,27,14,29,7.30
2011,11,27,14,30,7.30
2011,11,27,14,31,7.30
2011,11,27,14,32,7.30
2011,11,27,14,33,7.30
2011,11,27,14,34,7.30
2011,11,27,14,35,7.30
2011,11,27,14,36,7.30
2011,11,27,14,37,7.30
2011,11,27,14,38,7.20
2011,11,27,14,39,7.20
2011,11,27,14,40,7.20
2011,11,27,14,41,7.20
2011,11,27,14,42,7.20
2011,11,27,14,43,7.20
2011,11,27,14,44,7.20
2011,11,27,14,45,7.30
2011,11,27,14,46,7.20
2011,11,27,14,47,7.20
2011,11,27,14,48,7.20
2011,11,27,14,49,7.20
2011,11,27,14,50,7.20
2011,11,27,14,51,7.20
2011,11,27,14,52,7.20
2011,11,27,14,53,7.20
2011,11,27,14,54,7.10
2011,11,27,14,55,7.10
2011,11,27,14,56,7.10
2011,11,27,14,57,7.10
2011,11,27,14,58,7.10
2011,11,27,14,59,7.10
2011,11,27,15,00,7.00
2011,11,27,15,01,7.00
2011,11,27,15,02,7.00
2011,11,27,15,03,7.00
2011,11,27,15,04,7.00
2011,11,27,15,05,6.90
2011,11,27,15,06,6.90
2011,11,27,15,07,6.90
2011,11,27,15,08,6.90
2011,11,27,15,09,6.90
2011,11,27,15,10,6.90
2011,11,27,15,11,6.90
2011,11,27,15,12,6.90
2011,11,27,15,13,6.80
2011,11,27,15,14,6.80
2011,11,27,15,15,6.80
2011,11,27,15,16,6.80
2011,11,27,15,17,6.80
2011,11,27,15,18,6.80
2011,11,27,15,19,6.80
2011,11,27,15,20,6.80
2011,11,27,15,21,6.80
2011,11,27,15,22,6.80
2011,11,27,15,23,6.80
2011,11,27,15,24,6.80
2011,11,27,15,25,6.80
2011,11,27,15,26,6.80
2011,11,27,15,27,6.90
2011,11,27,15,28,6.90
2011,11,27,15,29,6.90
2011,11,27,15,30,6.90
2011,11,27,15,31,6.90
2011,11,27,15,32,6.90
2011,11,27,15,33,7.00
2011,11,27,15,34,7.00
2011,11,27,15,35,7.00
2011,11,27,15,36,7.00
2011,11,27,15,37,7.00
2011,11,27,15,38,7.00
2011,11,27,15,39,7.00
2011,11,27,15,40,6.90
2011,11,27,15,41,6.90
2011,11,27,15,42,6.90
2011,11,27,15,43,6.90
2011,11,27,15,44,6.80
2011,11,27,15,45,6.80
2011,11,27,15,46,6.80
2011,11,27,15,47,6.80
2011,11,27,15,48,6.80
2011,11,27,15,49,6.80
2011,11,27,15,50,6.80
2011,11,27,15,51,6.70
2011,11,27,15,52,6.70
2011,11,27,15,53,6.70
2011,11,27,15,54,6.70
2011,11,27,15,55,6.70
2011,11,27,15,56,6.70
2011,11,27,15,57,6.70
2011,11,27,15,58,6.70
2011,11,27,15,59,6.70
2011,11,27,16,00,6.70
2011,11,27,16,01,6.70
2011,11,27,16,02,6.70
2011,11,27,16,03,6.70
2011,11,27,16,04,6.70
2011,11,27,16,05,6.70
2011,11,27,16,06,6.70
2011,11,27,16,07,6.70
2011,11,27,16,08,6.70
2011,11,27,16,09,6.70
2011,11,27,16,10,6.60
2011,11,27,16,11,6.60
2011,11,27,16,12,6.60
2011,11,27,16,13,6.60
2011,11,27,16,14,6.60
2011,11,27,16,15,6.50
2011,11,27,16,16,6.50
2011,11,27,16,17,6.50
2011,11,27,16,18,6.50
2011,11,27,16,19,6.50
2011,11,27,16,20,6.40
2011,11,27,16,21,6.40
2011,11,27,16,22,6.40
2011,11,27,16,23,6.40
2011,11,27,16,24,6.40
2011,11,27,16,25,6.40
2011,11,27,16,26,6.40
2011,11,27,16,27,6.40
2011,11,27,16,28,6.40
2011,11,27,16,29,6.40
2011,11,27,16,30,6.30
2011,11,27,16,31,6.30
2011,11,27,16,32,6.30
2011,11,27,16,33,6.30
2011,11,27,16,34,6.30
2011,11,27,16,35,6.30
2011,11,27,16,36,6.30
2011,11,27,16,37,6.30
2011,11,27,16,38,6.30
2011,11,27,16,39,6.30
2011,11,27,16,40,6.30
2011,11,27,16,41,6.30
2011,11,27,16,42,6.30
2011,11,27,16,43,6.30
2011,11,27,16,44,6.30
2011,11,27,16,45,6.30
2011,11,27,16,46,6.20
2011,11,27,16,47,6.20
2011,11,27,16,48,6.20
2011,11,27,16,49,6.20
2011,11,27,16,50,6.20
2011,11,27,16,51,6.20
2011,11,27,16,52,6.20
2011,11,27,16,53,6.20
2011,11,27,16,54,6.20
2011,11,27,16,55,6.20
2011,11,27,16,56,6.20
2011,11,27,16,57,6.20
2011,11,27,16,58,6.10
2011,11,27,16,59,6.10
2011,11,27,17,00,6.10
2011,11,27,17,01,6.10
2011,11,27,17,02,6.10
2011,11,27,17,03,6.10
2011,11,27,17,04,6.10
2011,11,27,17,05,6.10
2011,11,27,17,06,6.10
2011,11,27,17,07,6.10
2011,11,27,17,08,6.10
2011,11,27,17,09,6.10
2011,11,27,17,10,6.10
2011,11,27,17,11,6.10
2011,11,27,17,12,6.10
2011,11,27,17,13,6.10
2011,11,27,17,14,6.00
2011,11,27,17,15,6.00
2011,11,27,17,16,6.00
2011,11,27,17,17,6.00
2011,11,27,17,18,6.00
2011,11,27,17,19,6.00
2011,11,27,17,20,6.00
2011,11,27,17,21,6.00
2011,11,27,17,22,5.90
2011,11,27,17,23,5.90
2011,11,27,17,24,5.90
2011,11,27,17,25,5.90
2011,11,27,17,26,5.90
2011,11,27,17,27,5.90
2011,11,27,17,28,5.90
2011,11,27,17,29,5.90
2011,11,27,17,30,5.90
2011,11,27,17,31,5.90
2011,11,27,17,32,5.90
2011,11,27,17,33,5.90
2011,11,27,17,34,5.90
2011,11,27,17,35,5.90
2011,11,27,17,36,5.80